1 Minute Report
Date Time Wind Direction Wind Speed Wind Gust Wind Variable Altimeter Temperature Dewpoint Relative Humidity Visibility Ceiling Precip Present Weather Density Alt Wind Chill Heat Index
17/09/26 16:06 120 03 N/A N/A 30.05 83(F), 28(C) 66(F), 19(C) 58% 10 CLR N/A N/A 2800 N/A 85 F 8826
17/09/26 16:05 120 04 N/A N/A 30.05 83(F), 28(C) 66(F), 19(C) 58% 10 CLR N/A N/A 2800 N/A 85 F 8825
17/09/26 16:04 120 04 N/A N/A 30.05 83(F), 28(C) 66(F), 19(C) 58% 10 CLR N/A N/A 2800 N/A 85 F 8824
17/09/26 16:03 120 03 N/A N/A 30.05 83(F), 28(C) 66(F), 19(C) 58% 10 CLR N/A N/A 2800 N/A 85 F 8823
17/09/26 16:02 120 03 N/A N/A 30.05 82(F), 28(C) 66(F), 19(C) 58% 10 CLR N/A N/A 2700 N/A 84 F 8822
17/09/26 16:01 130 03 N/A N/A 30.05 82(F), 28(C) 66(F), 19(C) 58% 10 CLR N/A N/A 2700 N/A 84 F 8821
17/09/26 16:00 000 00 N/A N/A 30.05 82(F), 28(C) 66(F), 19(C) 58% 10 CLR N/A N/A 2700 N/A 84 F 8820
17/09/26 15:59 000 00 N/A N/A 30.05 82(F), 28(C) 66(F), 19(C) 58% 10 CLR N/A N/A 2700 N/A 84 F 8819
17/09/26 15:58 000 00 N/A N/A 30.05 82(F), 28(C) 65(F), 18(C) 55% 10 CLR N/A N/A 2700 N/A 84 F 8818
17/09/26 15:57 000 00 N/A N/A 30.05 82(F), 28(C) 66(F), 19(C) 58% 10 CLR N/A N/A 2700 N/A 84 F 8817
17/09/26 15:56 110 03 N/A N/A 30.05 82(F), 28(C) 66(F), 19(C) 58% 10 CLR N/A N/A 2700 N/A 84 F 8816
17/09/26 15:55 130 03 N/A N/A 30.05 82(F), 28(C) 66(F), 19(C) 58% 10 CLR N/A N/A 2700 N/A 84 F 8815
17/09/26 15:54 130 03 N/A N/A 30.05 82(F), 28(C) 66(F), 19(C) 58% 10 CLR N/A N/A 2700 N/A 84 F 8814
17/09/26 15:53 110 03 N/A N/A 30.05 82(F), 28(C) 66(F), 19(C) 58% 10 CLR N/A N/A 2700 N/A 84 F 8813
17/09/26 15:52 000 00 N/A N/A 30.05 82(F), 28(C) 66(F), 19(C) 58% 10 CLR N/A N/A 2700 N/A 84 F 8812
17/09/26 15:51 000 00 N/A N/A 30.05 82(F), 28(C) 66(F), 19(C) 58% 10 CLR N/A N/A 2700 N/A 84 F 8811
17/09/26 15:50 000 00 N/A N/A 30.05 82(F), 28(C) 66(F), 19(C) 58% 10 CLR N/A N/A 2700 N/A 84 F 8810
17/09/26 15:49 140 03 N/A N/A 30.05 82(F), 28(C) 66(F), 19(C) 58% 10 CLR N/A N/A 2700 N/A 84 F 8809
17/09/26 15:48 150 03 N/A N/A 30.05 82(F), 28(C) 66(F), 19(C) 58% 10 CLR N/A N/A 2700 N/A 84 F 8808
17/09/26 15:47 160 03 N/A N/A 30.05 82(F), 28(C) 66(F), 19(C) 58% 10 CLR N/A N/A 2700 N/A 84 F 8807
17/09/26 15:46 180 03 N/A N/A 30.05 82(F), 28(C) 66(F), 19(C) 58% 10 CLR N/A N/A 2700 N/A 84 F 8806
17/09/26 15:45 170 03 N/A N/A 30.05 81(F), 27(C) 66(F), 19(C) 62% 10 CLR N/A N/A 2700 N/A 83 F 8805
17/09/26 15:44 150 03 N/A N/A 30.05 81(F), 27(C) 66(F), 19(C) 62% 10 CLR N/A N/A 2700 N/A 83 F 8804
17/09/26 15:43 000 00 N/A N/A 30.05 81(F), 27(C) 66(F), 19(C) 62% 10 CLR N/A N/A 2700 N/A 83 F 8803
17/09/26 15:42 000 00 N/A N/A 30.05 81(F), 27(C) 66(F), 19(C) 62% 10 CLR N/A N/A 2700 N/A 83 F 8802
17/09/26 15:41 160 03 N/A N/A 30.05 81(F), 27(C) 66(F), 19(C) 62% 10 CLR N/A N/A 2700 N/A 83 F 8801
17/09/26 15:40 000 00 N/A N/A 30.05 81(F), 27(C) 66(F), 19(C) 62% 10 CLR N/A N/A 2700 N/A 83 F 8800
17/09/26 15:39 000 00 N/A N/A 30.05 81(F), 27(C) 66(F), 19(C) 62% 10 CLR N/A N/A 2700 N/A 83 F 8799
17/09/26 15:38 150 03 N/A N/A 30.06 81(F), 27(C) 66(F), 19(C) 62% 10 CLR N/A N/A 2700 N/A 83 F 8798
17/09/26 15:37 150 03 N/A N/A 30.06 81(F), 27(C) 66(F), 19(C) 62% 10 CLR N/A N/A 2700 N/A 83 F 8797
17/09/26 15:36 150 03 N/A N/A 30.06 81(F), 27(C) 66(F), 19(C) 62% 10 CLR N/A N/A 2700 N/A 83 F 8796
17/09/26 15:35 170 03 N/A N/A 30.06 81(F), 27(C) 66(F), 19(C) 62% 10 CLR N/A N/A 2700 N/A 83 F 8795
17/09/26 15:34 170 03 N/A N/A 30.06 80(F), 27(C) 66(F), 19(C) 62% 10 CLR N/A N/A 2600 N/A 82 F 8794
17/09/26 15:33 140 04 N/A N/A 30.06 80(F), 27(C) 66(F), 19(C) 62% 10 CLR N/A N/A 2600 N/A 82 F 8793
17/09/26 15:32 140 04 N/A N/A 30.06 80(F), 27(C) 66(F), 19(C) 62% 10 CLR N/A N/A 2600 N/A 82 F 8792
17/09/26 15:31 150 04 N/A N/A 30.06 80(F), 27(C) 66(F), 19(C) 62% 10 CLR N/A N/A 2600 N/A 82 F 8791
17/09/26 15:30 150 03 N/A N/A 30.06 80(F), 27(C) 66(F), 19(C) 62% 10 CLR N/A N/A 2600 N/A 82 F 8790
17/09/26 15:29 160 03 N/A N/A 30.06 80(F), 27(C) 66(F), 19(C) 62% 10 CLR N/A N/A 2600 N/A 82 F 8789
17/09/26 15:28 160 04 N/A N/A 30.06 80(F), 27(C) 66(F), 19(C) 62% 10 CLR N/A N/A 2600 N/A 82 F 8788
17/09/26 15:27 150 04 N/A N/A 30.06 80(F), 27(C) 66(F), 19(C) 62% 10 CLR N/A N/A 2600 N/A 82 F 8787
17/09/26 15:26 160 04 N/A N/A 30.06 80(F), 27(C) 66(F), 19(C) 62% 10 CLR N/A N/A 2600 N/A 82 F 8786
17/09/26 15:25 160 04 N/A N/A 30.06 80(F), 27(C) 66(F), 19(C) 62% 10 CLR N/A N/A 2600 N/A 82 F 8785
17/09/26 15:24 170 04 N/A N/A 30.06 80(F), 27(C) 66(F), 19(C) 62% 10 CLR N/A N/A 2600 N/A 82 F 8784
17/09/26 15:23 170 03 N/A N/A 30.06 80(F), 27(C) 66(F), 19(C) 62% 10 CLR N/A N/A 2600 N/A 82 F 8783
17/09/26 15:22 160 03 N/A N/A 30.06 80(F), 27(C) 66(F), 19(C) 62% 10 CLR N/A N/A 2600 N/A 82 F 8782
17/09/26 15:21 160 03 N/A N/A 30.06 80(F), 27(C) 66(F), 19(C) 62% 10 CLR N/A N/A 2600 N/A 82 F 8781
17/09/26 15:20 170 03 N/A N/A 30.06 79(F), 26(C) 66(F), 19(C) 65% 10 CLR N/A N/A 2600 N/A 81 F 8780
17/09/26 15:19 180 03 N/A N/A 30.06 79(F), 26(C) 65(F), 18(C) 61% 10 CLR N/A N/A 2600 N/A 81 F 8779
17/09/26 15:18 000 00 N/A N/A 30.06 79(F), 26(C) 65(F), 18(C) 61% 10 CLR N/A N/A 2600 N/A 81 F 8778
17/09/26 15:17 000 00 N/A N/A 30.06 79(F), 26(C) 65(F), 18(C) 61% 10 CLR N/A N/A 2600 N/A 81 F 8777
17/09/26 15:16 000 00 N/A N/A 30.06 79(F), 26(C) 65(F), 18(C) 61% 10 CLR N/A N/A 2600 N/A 81 F 8776
17/09/26 15:15 000 00 N/A N/A 30.06 79(F), 26(C) 65(F), 18(C) 61% 10 CLR N/A N/A 2600 N/A 81 F 8775
17/09/26 15:14 000 00 N/A N/A 30.06 79(F), 26(C) 65(F), 18(C) 61% 10 CLR N/A N/A 2500 N/A 81 F 8774
17/09/26 15:13 000 00 N/A N/A 30.06 80(F), 27(C) 65(F), 18(C) 58% 10 CLR N/A N/A 2600 N/A 82 F 8773
17/09/26 15:12 000 00 N/A N/A 30.06 80(F), 27(C) 66(F), 19(C) 62% 10 CLR N/A N/A 2600 N/A 82 F 8772
17/09/26 15:11 190 03 N/A N/A 30.06 80(F), 27(C) 66(F), 19(C) 62% 10 CLR N/A N/A 2600 N/A 82 F 8771
17/09/26 15:10 000 00 N/A N/A 30.06 80(F), 27(C) 66(F), 19(C) 62% 10 CLR N/A N/A 2600 N/A 82 F 8770
17/09/26 15:09 000 00 N/A N/A 30.06 80(F), 27(C) 66(F), 19(C) 62% 10 CLR N/A N/A 2600 N/A 82 F 8769
17/09/26 15:08 190 03 N/A N/A 30.06 80(F), 27(C) 66(F), 19(C) 62% 10 CLR N/A N/A 2600 N/A 82 F 8768
17/09/26 15:07 190 03 N/A N/A 30.06 80(F), 27(C) 66(F), 19(C) 62% 10 CLR N/A N/A 2600 N/A 82 F 8767
17/09/26 15:06 180 03 N/A N/A 30.07 79(F), 26(C) 66(F), 19(C) 65% 10 CLR N/A N/A 2500 N/A 81 F 8766
17/09/26 15:05 000 00 N/A N/A 30.07 79(F), 26(C) 65(F), 18(C) 61% 10 CLR N/A N/A 2500 N/A 81 F 8765
17/09/26 15:04 000 00 N/A N/A 30.07 79(F), 26(C) 65(F), 18(C) 61% 10 CLR N/A N/A 2500 N/A 81 F 8764
17/09/26 15:03 000 00 N/A N/A 30.07 79(F), 26(C) 65(F), 18(C) 61% 10 CLR N/A N/A 2500 N/A 81 F 8763
17/09/26 15:02 000 00 N/A N/A 30.07 79(F), 26(C) 65(F), 18(C) 61% 10 CLR N/A N/A 2500 N/A 81 F 8762
17/09/26 15:01 000 00 N/A N/A 30.07 79(F), 26(C) 65(F), 18(C) 61% 10 CLR N/A N/A 2500 N/A 81 F 8761
17/09/26 15:00 000 00 N/A N/A 30.07 79(F), 26(C) 65(F), 18(C) 61% 10 CLR N/A N/A 2500 N/A 81 F 8760
17/09/26 14:59 120 03 N/A N/A 30.07 79(F), 26(C) 65(F), 18(C) 61% 10 CLR N/A N/A 2500 N/A 81 F 8759
17/09/26 14:58 140 03 N/A N/A 30.07 78(F), 26(C) 65(F), 18(C) 61% 10 CLR N/A N/A 2500 N/A 80 F 8758
17/09/26 14:57 140 03 N/A N/A 30.07 78(F), 26(C) 65(F), 18(C) 61% 10 CLR N/A N/A 2500 N/A 80 F 8757
17/09/26 14:56 000 00 N/A N/A 30.07 78(F), 26(C) 65(F), 18(C) 61% 10 CLR N/A N/A 2500 N/A 80 F 8756
17/09/26 14:55 000 00 N/A N/A 30.07 78(F), 26(C) 65(F), 18(C) 61% 10 CLR N/A N/A 2500 N/A 80 F 8755
17/09/26 14:54 000 00 N/A N/A 30.07 78(F), 26(C) 65(F), 18(C) 61% 10 CLR N/A N/A 2500 N/A 80 F 8754
17/09/26 14:53 000 00 N/A N/A 30.07 78(F), 26(C) 65(F), 18(C) 61% 10 CLR N/A N/A 2500 N/A 80 F 8753
17/09/26 14:52 000 00 N/A N/A 30.07 78(F), 26(C) 65(F), 18(C) 61% 10 CLR N/A N/A 2500 N/A 80 F 8752
17/09/26 14:51 000 00 N/A N/A 30.07 77(F), 25(C) 65(F), 18(C) 65% 10 CLR N/A N/A 2400 N/A 79 F 8751
17/09/26 14:50 000 00 N/A N/A 30.07 77(F), 25(C) 65(F), 18(C) 65% 10 CLR N/A N/A 2400 N/A 79 F 8750
17/09/26 14:49 000 00 N/A N/A 30.07 77(F), 25(C) 65(F), 18(C) 65% 10 CLR N/A N/A 2400 N/A 79 F 8749
17/09/26 14:48 000 00 N/A N/A 30.07 77(F), 25(C) 65(F), 18(C) 65% 10 CLR N/A N/A 2400 N/A 79 F 8748
17/09/26 14:47 000 00 N/A N/A 30.07 77(F), 25(C) 65(F), 18(C) 65% 10 CLR N/A N/A 2400 N/A 79 F 8747
17/09/26 14:46 000 00 N/A N/A 30.07 77(F), 25(C) 65(F), 18(C) 65% 10 CLR N/A N/A 2400 N/A 79 F 8746
17/09/26 14:45 000 00 N/A N/A 30.07 77(F), 25(C) 65(F), 18(C) 65% 10 CLR N/A N/A 2400 N/A 79 F 8745
17/09/26 14:44 000 00 N/A N/A 30.07 77(F), 25(C) 65(F), 18(C) 65% 10 CLR N/A N/A 2400 N/A 79 F 8744
17/09/26 14:43 000 00 N/A N/A 30.07 77(F), 25(C) 65(F), 18(C) 65% 10 CLR N/A N/A 2400 N/A 79 F 8743
17/09/26 14:42 000 00 N/A N/A 30.07 77(F), 25(C) 65(F), 18(C) 65% 10 CLR N/A N/A 2400 N/A 79 F 8742
17/09/26 14:41 000 00 N/A N/A 30.07 76(F), 24(C) 65(F), 18(C) 69% 10 CLR N/A N/A 2300 N/A 78 F 8741
17/09/26 14:40 000 00 N/A N/A 30.07 76(F), 24(C) 65(F), 18(C) 69% 10 CLR N/A N/A 2300 N/A 78 F 8740
17/09/26 14:39 000 00 N/A N/A 30.07 76(F), 24(C) 65(F), 18(C) 69% 10 CLR N/A N/A 2300 N/A 78 F 8739
17/09/26 14:38 000 00 N/A N/A 30.07 76(F), 24(C) 65(F), 18(C) 69% 10 CLR N/A N/A 2300 N/A 78 F 8738
17/09/26 14:37 000 00 N/A N/A 30.07 76(F), 24(C) 65(F), 18(C) 69% 10 CLR N/A N/A 2300 N/A 78 F 8737
17/09/26 14:36 000 00 N/A N/A 30.07 75(F), 24(C) 65(F), 18(C) 69% 10 CLR N/A N/A 2300 N/A 77 F 8736
17/09/26 14:35 170 03 N/A N/A 30.07 75(F), 24(C) 65(F), 18(C) 69% 10 CLR N/A N/A 2300 N/A 77 F 8735
17/09/26 14:34 160 03 N/A N/A 30.07 75(F), 24(C) 65(F), 18(C) 69% 10 CLR N/A N/A 2300 N/A 77 F 8734
17/09/26 14:33 150 03 N/A N/A 30.07 75(F), 24(C) 65(F), 18(C) 69% 10 CLR N/A N/A 2300 N/A 77 F 8733
17/09/26 14:32 150 03 N/A N/A 30.07 75(F), 24(C) 65(F), 18(C) 69% 10 CLR N/A N/A 2300 N/A 77 F 8732
17/09/26 14:31 150 03 N/A N/A 30.07 75(F), 24(C) 65(F), 18(C) 69% 10 CLR N/A N/A 2300 N/A 77 F 8731
17/09/26 14:30 160 03 N/A N/A 30.07 75(F), 24(C) 65(F), 18(C) 69% 10 CLR N/A N/A 2300 N/A 77 F 8730
17/09/26 14:29 160 04 N/A N/A 30.07 75(F), 24(C) 65(F), 18(C) 69% 10 CLR N/A N/A 2300 N/A 77 F 8729
17/09/26 14:28 170 04 N/A N/A 30.07 75(F), 24(C) 65(F), 18(C) 69% 10 CLR N/A N/A 2300 N/A 77 F 8728
17/09/26 14:27 160 03 N/A N/A 30.07 75(F), 24(C) 65(F), 18(C) 69% 10 CLR N/A N/A 2300 N/A 77 F 8727
17/09/26 14:26 170 03 N/A N/A 30.07 75(F), 24(C) 65(F), 18(C) 69% 10 CLR N/A N/A 2300 N/A 77 F 8726
17/09/26 14:25 000 00 N/A N/A 30.07 75(F), 24(C) 65(F), 18(C) 69% 7 CLR N/A N/A 2300 N/A 77 F 8725
17/09/26 14:24 160 04 N/A N/A 30.07 75(F), 24(C) 65(F), 18(C) 69% 7 CLR N/A N/A 2300 N/A 77 F 8724
17/09/26 14:23 150 04 N/A N/A 30.07 75(F), 24(C) 64(F), 18(C) 69% 7 CLR N/A N/A 2300 N/A 77 F 8723
17/09/26 14:22 140 03 N/A N/A 30.07 75(F), 24(C) 64(F), 18(C) 69% 7 CLR N/A N/A 2300 N/A 77 F 8722
17/09/26 14:21 150 04 N/A N/A 30.07 75(F), 24(C) 65(F), 18(C) 69% 7 CLR N/A N/A 2300 N/A 77 F 8721
17/09/26 14:20 150 04 N/A N/A 30.07 75(F), 24(C) 65(F), 18(C) 69% 7 CLR N/A N/A 2300 N/A 77 F 8720
17/09/26 14:19 150 04 N/A N/A 30.07 75(F), 24(C) 65(F), 18(C) 69% 7 CLR N/A N/A 2300 N/A 77 F 8719
17/09/26 14:18 150 05 N/A N/A 30.08 75(F), 24(C) 65(F), 18(C) 69% 7 CLR N/A N/A 2300 N/A 77 F 8718
17/09/26 14:17 150 05 N/A N/A 30.08 75(F), 24(C) 65(F), 18(C) 69% 7 CLR N/A N/A 2300 N/A 77 F 8717
17/09/26 14:16 150 04 N/A N/A 30.08 75(F), 24(C) 65(F), 18(C) 69% 7 CLR N/A N/A 2300 N/A 77 F 8716
17/09/26 14:15 150 04 N/A N/A 30.08 75(F), 24(C) 65(F), 18(C) 69% 7 CLR N/A N/A 2300 N/A 77 F 8715
17/09/26 14:14 150 04 N/A N/A 30.08 75(F), 24(C) 65(F), 18(C) 69% 7 CLR N/A N/A 2300 N/A 77 F 8714
17/09/26 14:13 160 04 N/A N/A 30.08 75(F), 24(C) 65(F), 18(C) 69% 10 CLR N/A N/A 2300 N/A 77 F 8713
17/09/26 14:12 160 04 N/A N/A 30.08 75(F), 24(C) 65(F), 18(C) 69% 10 CLR N/A N/A 2300 N/A 77 F 8712
17/09/26 14:11 150 04 N/A N/A 30.08 75(F), 24(C) 65(F), 18(C) 69% 10 CLR N/A N/A 2300 N/A 77 F 8711
17/09/26 14:10 150 05 N/A N/A 30.08 75(F), 24(C) 65(F), 18(C) 69% 10 CLR N/A N/A 2300 N/A 77 F 8710
17/09/26 14:09 160 05 N/A N/A 30.08 75(F), 24(C) 65(F), 18(C) 69% 10 CLR N/A N/A 2300 N/A 77 F 8709
17/09/26 14:08 160 04 N/A N/A 30.08 75(F), 24(C) 65(F), 18(C) 69% 10 CLR N/A N/A 2300 N/A 77 F 8708
17/09/26 14:07 150 03 N/A N/A 30.08 75(F), 24(C) 65(F), 18(C) 69% 10 CLR N/A N/A 2300 N/A 77 F 8707
17/09/26 14:06 150 03 N/A N/A 30.08 74(F), 23(C) 65(F), 18(C) 73% 10 CLR N/A N/A 2200 N/A 75 F 8706